If you wish to contribute or participate in the discussions about articles you are invited to join SKYbrary as a registered user

 Actions

Châteaudun (BA 279) Airport

From SKYbrary Wiki

LFOC /
Revision as of 20:13, 16 February 2015 by Timo.Kouwenhoven (talk | contribs) (LF Airports CSV import)
(diff) ← Older revision | Latest revision (diff) | Newer revision → (diff)
Airport
ICAO: LFOC
Summary
Name Châteaudun (BA 279) Airport
Region Europe
Territory France FR.gif
Location , Centre
Serving Chateaudun
Elevation 131.978 m
433 ft
433 ft131.978 m
Type medium airport
Coordinates 48° 3' 29.31" N, 1° 22' 35.85" E
Runways
Designator Length Width Surface ROPS
10/28 2302 m7,552.493 ft
45 m147.638 ft
ASP /


METAR
Observation LFOC 252230Z AUTO 25018KT 9999 FEW029 04/01 Q1006
Station Chateaudun
Date/Time 25 February 2020 22:30:00
Wind direction 250°
Wind speed 18 kts
Lowest cloud amount few clouds
Temperature 4°C
Dew point 1°C
Humidity 80%
QNH 1006 hPa
Weather condition n/a